Waarnemingen

Advertentie
Mijn weer
Pembrey Sands, Groot Brittannië (3605): temperatuur & dauwpunt: 16.10.2017 10:00:00 - 22.10.2017 10:00:00 (BST)Pembrey Sands, Groot Brittannië (3605): windsnelheid & windstoten: 16.10.2017 10:00:00 - 22.10.2017 10:00:00 (BST)Pembrey Sands, Groot Brittannië (3605): windrichting: 16.10.2017 10:00:00 - 22.10.2017 10:00:00 (BST)Pembrey Sands, Groot Brittannië (3605): luchtdruk: 16.10.2017 10:00:00 - 22.10.2017 10:00:00 (BST)Pembrey Sands, Groot Brittannië (3605): zicht: 16.10.2017 10:00:00 - 22.10.2017 10:00:00 (BST)Pembrey Sands, Groot Brittannië (3605): neerslag: 16.10.2017 10:00:00 - 22.10.2017 10:00:00 (BST)
Datum & Tijd tt [°C] td [°C] ff [km/u] ff [kn] fx [km/u] fx [kn] dd ppp [hPa] vv [km] rr [mm]
22.10.2017 10:00:00 11,5 7,2 35 19 55 30 WNW 1016,0 10 0,0
22.10.2017 09:00:00 11,0 5,9 44 24 61 33 W 1015,3 10 0,0
22.10.2017 08:00:00 10,3 4,8 52 28 65 35 W 1014,5 11 0,0
22.10.2017 07:00:00 10,0 5,2 42 23 65 35 W 1013,7 14 0,0
22.10.2017 06:00:00 10,2 4,9 48 26 63 34 W 1013,3 21 0,0
22.10.2017 05:00:00 10,3 5,5 50 27 68 37 W 1012,5 27 0,0
22.10.2017 04:00:00 10,3 5,9 52 28 70 38 W 1011,9 29 -
22.10.2017 03:00:00 10,4 6,1 54 29 67 36 W 1011,1 30 0,0
22.10.2017 02:00:00 10,6 6,0 52 28 72 39 W 1010,3 30 0,0
22.10.2017 01:00:00 11,1 7,0 52 28 63 34 W 1009,4 26 0,0
22.10.2017 00:00:00 11,0 7,7 52 28 78 42 WNW 1008,7 20 0,2
21.10.2017 23:00:00 11,6 8,6 54 29 68 37 W 1007,1 17 0,0
21.10.2017 22:00:00 11,6 9,2 57 31 76 41 W 1005,5 6 0,2
21.10.2017 21:00:00 12,8 8,8 57 31 81 44 W 1004,2 11 0,0
21.10.2017 20:00:00 12,8 10,1 50 27 78 42 W 1003,1 3,4 0,0
21.10.2017 19:00:00 13,4 9,3 59 32 80 43 W 1001,6 10 0,0
21.10.2017 18:00:00 13,4 10,9 59 32 78 42 W 999,5 9 0,0
21.10.2017 17:00:00 13,8 11,5 55 30 76 41 W 998,0 11 0,0
21.10.2017 16:00:00 13,3 11,0 59 32 100 54 W 997,0 8 0,2
21.10.2017 15:00:00 12,4 10,4 78 42 102 55 WZW 996,3 7 0,8
21.10.2017 14:00:00 12,7 10,4 87 47 111 60 WZW 995,7 3,3 0,4
21.10.2017 13:00:00 13,3 10,0 91 49 111 60 WZW 995,0 7 0,0
21.10.2017 12:00:00 13,5 9,8 89 48 107 58 ZW 994,8 9 0,0
21.10.2017 11:00:00 13,2 10,1 80 43 109 59 ZW 994,8 6 0,2
21.10.2017 10:00:00 13,4 10,6 76 41 100 54 ZW 994,5 5 0,0
21.10.2017 09:00:00 13,5 10,8 70 38 98 53 ZW 994,2 5 0,8
21.10.2017 08:00:00 13,4 10,8 74 40 104 56 ZW 993,5 6 0,6
21.10.2017 07:00:00 13,0 10,9 68 37 104 56 ZW 993,9 4,9 -
21.10.2017 06:00:00 13,8 10,5 80 43 107 58 ZZW 994,7 8 -
21.10.2017 05:00:00 13,9 9,8 70 38 94 51 ZZW 994,9 9 -
21.10.2017 04:00:00 14,2 9,6 68 37 93 50 ZZW 995,8 12 -
21.10.2017 03:00:00 14,3 10,3 63 34 83 45 ZZW 996,4 9 -
21.10.2017 02:00:00 14,6 11,6 61 33 80 43 ZZW 996,9 9 -
21.10.2017 01:00:00 14,8 12,6 54 29 68 37 ZZW 997,2 11 -
21.10.2017 00:00:00 14,8 12,5 48 26 59 32 ZZW 997,9 9 -
20.10.2017 23:00:00 14,2 12,2 42 23 80 43 ZZW 998,4 13 -
20.10.2017 22:00:00 14,2 13,7 59 32 70 38 ZZO 998,0 4,5 -
20.10.2017 21:00:00 13,5 13,0 46 25 63 34 ZZO 998,8 5 2,6
20.10.2017 20:00:00 13,3 12,4 42 23 57 31 ZZO 1000,2 3,0 2,0
20.10.2017 19:00:00 12,9 11,4 28 15 52 28 ZO 1001,5 6 1,2
20.10.2017 18:00:00 14,0 10,4 37 20 52 28 ZZO 1003,2 14 0,0
20.10.2017 17:00:00 13,9 10,3 42 23 54 29 Z 1004,5 15 0,0
20.10.2017 16:00:00 13,7 9,3 44 24 54 29 Z 1005,3 18 0,0
20.10.2017 15:00:00 13,3 8,4 37 20 - - Z 1006,2 19 0,0
20.10.2017 14:00:00 13,1 7,4 29 16 - - ZZW 1006,5 21 0,0
20.10.2017 13:00:00 13,7 6,8 29 16 - - ZW 1007,3 24 0,0
20.10.2017 12:00:00 12,5 6,5 16 9 - - WZW 1007,6 22 0,0
20.10.2017 11:00:00 12,0 6,0 28 15 - - W 1007,4 21 0,0
20.10.2017 10:00:00 11,4 7,9 26 14 48 26 W 1007,1 16 0,0
20.10.2017 09:00:00 11,1 8,0 35 19 50 27 W 1006,1 10 0,0
20.10.2017 08:00:00 11,0 8,5 37 20 59 32 W 1004,6 9 0,0
20.10.2017 07:00:00 11,2 9,0 41 22 59 32 W 1003,4 9 0,0
20.10.2017 06:00:00 11,0 9,2 50 27 61 33 W 1002,0 9 0,0
20.10.2017 05:00:00 11,3 9,9 52 28 68 37 W 1000,5 15 0,0
20.10.2017 04:00:00 11,8 10,7 52 28 65 35 W 998,6 29 0,0
20.10.2017 03:00:00 12,9 11,9 28 15 - - W 996,6 18 0,0
20.10.2017 02:00:00 12,6 11,5 31 17 - - W 994,0 60 0,0
20.10.2017 01:00:00 13,2 12,5 39 21 - - W 992,1 35 0,0
20.10.2017 00:00:00 13,8 13,2 18 10 - - WZW 990,2 8 0,0
19.10.2017 23:00:00 13,5 13,0 24 13 - - Z 989,7 13 0,2
19.10.2017 22:00:00 12,7 11,4 31 17 55 30 ZO 990,1 5 0,2
19.10.2017 21:00:00 13,5 10,9 46 25 68 37 ZZO 990,7 12 0,0
19.10.2017 20:00:00 13,9 11,1 50 27 67 36 Z 991,5 11 0,0
19.10.2017 19:00:00 13,8 13,0 48 26 65 35 ZZO 992,3 6 1,0
19.10.2017 18:00:00 13,6 12,8 28 15 50 27 OZO 992,6 6 0,8
19.10.2017 17:00:00 14,1 12,5 26 14 - - OZO 993,4 25 0,0
19.10.2017 16:00:00 13,7 12,8 22 12 - - OZO 995,2 24 0,8
19.10.2017 15:00:00 14,0 13,2 24 13 - - ZO 996,7 8 1,2
19.10.2017 14:00:00 14,8 13,0 26 14 - - ZO 997,8 9 0,0
19.10.2017 13:00:00 14,5 12,5 22 12 - - OZO 998,8 19 0,0
19.10.2017 12:00:00 13,2 11,7 26 14 - - OZO 1000,1 11 0,0
19.10.2017 11:00:00 13,2 11,9 28 15 - - OZO 1001,2 11 0,0
19.10.2017 10:00:00 13,1 12,0 24 13 - - OZO 1002,1 10 0,0
19.10.2017 09:00:00 13,1 12,1 21 11 - - OZO 1002,6 10 0,0
19.10.2017 08:00:00 13,2 12,0 16 9 - - OZO 1003,0 11 0,0
19.10.2017 07:00:00 13,7 11,8 18 10 - - ZZO 1003,5 22 0,0
19.10.2017 06:00:00 13,6 11,9 21 11 - - ZZO 1004,2 14 0,0
19.10.2017 05:00:00 14,0 12,5 34 18 - - Z 1004,7 9 0,0
19.10.2017 04:00:00 13,9 12,5 28 15 - - ZZO 1005,6 11 0,0
19.10.2017 03:00:00 14,2 12,8 31 17 - - Z 1006,4 10 0,0
19.10.2017 02:00:00 13,9 12,4 24 13 - - ZZO 1007,0 15 0,0
19.10.2017 01:00:00 13,7 12,5 28 15 - - ZZO 1007,3 16 0,0
19.10.2017 00:00:00 13,1 12,3 21 11 - - ZO 1007,5 9 0,0
18.10.2017 23:00:00 12,5 11,8 21 11 - - OZO 1007,9 7 0,0
18.10.2017 22:00:00 12,4 11,7 18 10 - - OZO 1008,2 6 0,0
18.10.2017 21:00:00 12,2 11,5 22 12 - - OZO 1008,1 6 0,0
18.10.2017 20:00:00 12,3 11,4 16 9 - - OZO 1008,7 7 0,0
18.10.2017 19:00:00 12,5 11,3 18 10 - - OZO 1008,7 10 0,0
18.10.2017 18:00:00 13,0 11,5 16 9 - - OZO 1009,0 11 0,0
18.10.2017 17:00:00 13,4 11,8 15 8 - - OZO 1009,1 14 0,0
18.10.2017 16:00:00 13,2 11,5 15 8 - - OZO 1009,5 15 0,0
18.10.2017 15:00:00 12,5 11,1 16 9 - - OZO 1009,8 15 0,0
18.10.2017 14:00:00 12,2 11,0 18 10 - - OZO 1010,0 13 0,0
18.10.2017 13:00:00 11,9 10,7 9 5 - - OZO 1010,5 16 0,0
18.10.2017 12:00:00 11,7 10,3 8 4 - - O 1010,7 17 0,0
18.10.2017 11:00:00 11,9 9,4 8 4 - - O 1010,9 25 0,0
18.10.2017 10:00:00 11,2 8,8 8 4 - - ONO 1011,1 27 0,0
18.10.2017 09:00:00 10,6 8,4 9 5 - - ONO 1011,4 35 0,0
18.10.2017 08:00:00 10,1 8,0 9 5 - - ONO 1011,2 35 0,0
18.10.2017 07:00:00 10,0 7,5 15 8 - - ONO 1011,3 40 0,0
18.10.2017 06:00:00 9,5 7,0 11 6 - - O 1011,9 40 0,0
18.10.2017 05:00:00 9,0 6,8 11 6 - - ONO 1012,3 40 0,0
18.10.2017 04:00:00 8,6 6,7 11 6 - - O 1013,0 35 0,0
18.10.2017 03:00:00 9,3 7,1 13 7 - - ONO 1013,7 30 0,0
18.10.2017 02:00:00 10,1 7,9 15 8 - - ONO 1014,2 26 0,0
18.10.2017 01:00:00 10,1 7,4 13 7 - - O 1015,0 30 0,0
18.10.2017 00:00:00 10,5 7,4 11 6 - - O 1015,6 35 0,0
17.10.2017 23:00:00 11,3 7,7 9 5 - - O 1016,1 30 0,0
17.10.2017 22:00:00 11,1 8,2 11 6 - - ONO 1016,6 30 0,0
17.10.2017 21:00:00 10,3 8,4 9 5 - - ONO 1016,4 23 0,0
17.10.2017 20:00:00 10,4 7,6 5 3 - - O 1016,0 21 0,0
17.10.2017 19:00:00 11,4 7,6 5 3 - - NO 1016,2 18 0,0
17.10.2017 18:00:00 13,4 8,0 9 5 - - WZW 1016,6 11 0,0
17.10.2017 17:00:00 14,0 8,6 11 6 - - WZW 1017,1 11 0,0
17.10.2017 16:00:00 14,4 8,5 13 7 - - ZZW 1017,6 14 0,0
17.10.2017 15:00:00 14,8 8,1 9 5 - - ZZW 1018,3 18 0,0
17.10.2017 14:00:00 15,2 7,8 15 8 - - W 1018,8 25 0,0
17.10.2017 13:00:00 15,2 8,3 15 8 - - W 1019,3 23 0,0
17.10.2017 12:00:00 14,5 8,3 21 11 - - W 1019,4 24 0,0
17.10.2017 11:00:00 14,6 9,2 21 11 - - W 1019,2 17 0,0
17.10.2017 10:00:00 13,5 8,9 22 12 - - W 1019,2 16 0,0
17.10.2017 09:00:00 13,1 8,8 26 14 50 27 W 1018,6 15 0,0
17.10.2017 08:00:00 13,5 9,3 41 22 52 28 W 1017,9 10 0,0
17.10.2017 07:00:00 13,5 9,0 41 22 63 34 W 1017,4 9 0,0
17.10.2017 06:00:00 13,6 9,1 46 25 65 35 WZW 1017,3 8 0,0
17.10.2017 05:00:00 13,8 8,9 50 27 67 36 W 1017,3 7 0,0
17.10.2017 04:00:00 13,8 8,9 57 31 70 38 WZW 1017,1 9 0,0
17.10.2017 03:00:00 13,9 9,1 57 31 76 41 WZW 1017,5 10 0,0
17.10.2017 02:00:00 13,9 9,0 61 33 81 44 WZW 1017,1 11 0,0
17.10.2017 01:00:00 14,1 9,2 63 34 83 45 WZW 1016,7 12 0,0
17.10.2017 00:00:00 14,0 9,0 72 39 93 50 WZW 1016,0 12 0,0
16.10.2017 23:00:00 14,2 9,6 67 36 87 47 ZW 1015,1 10 0,0
16.10.2017 22:00:00 14,3 9,0 70 38 96 52 ZW 1014,2 10 0,0
16.10.2017 21:00:00 14,4 9,2 81 44 100 54 ZW 1012,9 8 0,0
16.10.2017 20:00:00 14,5 10,1 80 43 106 57 ZW 1011,9 7 0,0
16.10.2017 19:00:00 14,8 11,0 74 40 111 60 ZW 1010,9 6 -
16.10.2017 18:00:00 14,8 9,9 83 45 119 64 ZZW 1009,8 5 0,0
16.10.2017 17:00:00 14,9 10,7 81 44 113 61 ZZW 1009,2 4,6 0,0
16.10.2017 16:00:00 15,4 10,1 89 48 113 61 ZZW 1008,9 4,7 0,0
16.10.2017 15:00:00 16,2 10,0 91 49 120 65 ZZW 1008,3 2,9 0,0
16.10.2017 14:00:00 16,5 11,0 78 42 106 57 ZZW 1008,7 7 0,0
16.10.2017 13:00:00 16,8 10,9 80 43 98 53 ZZW 1009,0 8 0,0
16.10.2017 12:00:00 17,2 12,2 72 39 98 53 ZZW 1008,4 9 0,0
16.10.2017 11:00:00 17,6 13,4 68 37 94 51 Z 1007,8 10 0,0
16.10.2017 10:00:00 18,3 15,0 54 29 67 36 Z 1007,4 10 0,0

tt = temperatuur
td = dauwpunt
ff = windsnelheid
fx = windstoten
dd = windrichting
ppp = luchtdruk
vv = zicht
rr = neerslag

Weerstations in de omgeving